ATLAS 5 CENTAUR DEB, 49352

Orbit data source: Space-Track

ATLAS 5 CENTAUR DEB, 49352 is space debris in HEO originally from a launch on Wed, 17 Oct 2018 UTC launched from the Air Force Eastern Test Range (AFETR). Debris objects in space refer to the collection of defunct objects orbiting the Earth. Examples of debris include non-operational satellites, rocket bodies, and fragments generated from explosions, collisions, or faulty payload assembly.

Loading next visibility...
Identifier
49352, 2018-079FD
Orbit
HEO
Country
Flag of USUS
Related business
Flag of USUnited Launch Alliance/Lockheed Martin (US)
Manufacturer
ULA Decatur
Mission
Spacecraft
Bus & Motor
Unknown
Mass
Unknown
Launch date (UTC)
2018-10-17 (7 years ago)
Launch vehicle
Unknown
Launch site
Air Force Eastern Test Range (AFETR)
Object type
Payload
Rocket body
Debris
Shape & HBR
Unknown shape, 1.1 m
Radar Cross Section
Medium (>0.1 m² and <1 m²)

Expand to show TLE details & history
Last TLE update: 2 days ago

TLE from 2 days ago
0 ATLAS 5 CENTAUR DEB
1 49352U 18079FD  25287.25290932 -.00000054  00000-0  00000-0 0  9994
2 49352  11.8839  96.6708 4628518 192.9748 149.2446  1.68338513 25370
Epoch: 2025-10-14T06:04Z
TLE epoch observation values (Epoch: 2025-10-14T06:04:11.365Z)
Latitude
-0.00003°
Longitude
-17.40424°
Altitude
36,324.302 km
Speed
2.306 km/s
True Right ascension
06h 26m 44s
True Declination
0° 00' 00"
Sunlit
Object was in daylight at epoch
Visualization orbit readout
Latitude
Unknown
Longitude
Unknown
Altitude
Unknown
Speed
Unknown
Apparent Right ascension
Unknown
Apparent Declination
Unknown
Sunlit
N/A
Visualization observer readout
Local Sidereal Time
12:43:53
Azimuth
Unknown
Elevation
Unknown
Doppler factor
Unknown
Orbital elements
Apogee altitude
37,291.104 km
Perigee altitude
9,656.88 km
Semi-major axis
29,852.129 km
Eccentricity
0.46285
Inclination
11.8839°
RAAN
96.6708°
Arg. of periapsis
192.9748°
True anomaly
167.07525°
Mean anomaly
149.2446°
Eccentric anomaly
158.82423°
Mean motion
0.4208 °/min
Orbital period
855.5 mins
BSTAR
0
Loading maneuver chart data...
Computing Atmospheric mass density...

Documentation

Showing up to 5 results
|